Wind_Speed
5 6 6 6 6 6 6 6 7 8 8 7 7 8 8 8 8 8 7 7 6 6 6 7 6 6 6 6 7 7 6 7 7 7 7 7 6 6 7 7 7 7 7
6 6 7 7 7 7 6 7 7 8 9 9 8 9 9 9 8 8 8 8 8 7 7 7 7 8 8 8 8 8 9 8 8 8 8 8 8 8 8 8 8 8 8
6 7 6 6 6 7 7 7 8 8 9 10 10 10 10 10 10 9 8 9 9 9 8 8 8 9 9 8 9 9 10 10 9 9 9 9 10 9 10 9 8 8 8
6 6 6 6 7 7 7 8 8 8 10 10 10 11 11 12 12 10 10 10 10 10 10 9 9 9 9 10 10 10 11 10 10 10 10 10 11 11 11 10 10 10 10
7 7 7 8 8 8 8 9 9 9 10 11 11 12 12 12 12 11 11 10 10 11 11 11 10 10 11 11 11 11 12 12 11 11 11 12 12 12 11 11 11 11 12
8 8 8 8 8 8 8 9 9 9 10 10 11 12 13 13 12 13 12 11 11 11 12 12 12 12 12 12 13 13 13 13 13 13 12 12 12 12 13 12 12 12 13
8 8 9 9 8 8 8 8 9 10 10 11 11 12 12 13 13 13 13 12 12 12 13 13 13 13 13 14 15 15 14 14 14 14 13 13 13 13 14 14 13 13 14
9 9 9 9 9 9 9 9 9 9 10 10 10 11 11 12 12 13 13 14 13 14 15 15 15 15 15 15 16 16 16 16 15 15 15 15 15 15 14 15 15 15 15
9 9 9 9 9 10 10 10 10 9 9 10 11 11 12 12 12 12 13 15 15 15 16 17 17 16 16 17 18 18 17 16 16 16 16 16 16 16 16 16 16 16 15
8 8 8 9 9 11 11 11 11 11 11 11 12 13 13 13 13 12 13 14 15 16 17 17 17 17 18 18 18 18 17 18 17 17 17 17 17 17 16 16 16 16 16
9 9 10 10 10 10 11 12 12 12 12 13 13 14 14 15 14 13 13 14 16 17 17 18 18 19 19 19 19 19 19 19 19 19 19 19 19 18 18 18 18 18 17
11 11 11 11 11 11 12 13 13 13 14 14 15 15 15 15 15 14 15 16 17 18 19 19 20 20 20 19 19 20 20 19 20 20 20 19 20 19 20 20 20 19 19
12 12 12 13 13 13 13 13 14 15 15 16 16 16 16 16 17 17 17 17 18 19 20 20 21 21 21 21 20 20 19 19 20 20 21 21 21 21 21 21 22 21 21
13 14 14 14 15 15 15 16 16 16 17 17 17 17 17 17 17 17 18 19 20 20 21 21 22 22 22 21 21 21 21 20 21 22 22 22 23 23 22 22 23 23 22
15 15 15 15 16 16 17 17 17 18 19 19 19 19 19 19 20 20 21 21 21 22 22 23 23 23 23 23 22 22 22 23 23 23 24 24 24 24 24 24 24 24 23
17 16 17 17 17 18 19 19 19 19 20 20 20 20 20 21 22 23 24 24 24 24 23 24 24 25 25 25 25 25 25 25 25 25 26 26 25 25 25 25 25 25 25
18 18 18 19 19 19 20 21 21 21 21 22 22 22 22 23 24 24 25 25 26 26 25 25 25 26 25 26 27 27 27 27 27 27 27 27 27 26 27 27 27 27 27
20 20 20 21 21 21 21 22 22 23 22 23 23 23 24 25 26 26 27 27 27 27 27 27 27 27 28 28 28 28 28 29 29 28 28 29 29 29 29 29 29 29 29
22 22 23 22 23 22 22 23 23 24 24 24 25 25 26 27 27 28 28 28 28 29 29 29 29 29 30 30 30 30 31 31 31 30 30 30 30 29 30 30 30 30 30
23 24 24 24 24 24 24 24 25 25 26 26 27 28 28 28 29 29 29 29 30 30 31 31 30 31 31 31 31 31 31 31 31 32 32 32 31 31 31 31 30 30 30
25 25 26 26 25 25 26 26 26 26 27 27 29 29 30 30 30 30 30 31 31 31 31 31 31 31 31 32 32 32 33 32 32 32 32 33 33 32 32 32 32 32 32
26 27 26 27 27 27 27 27 27 27 28 28 28 29 30 30 31 31 31 31 32 32 32 32 32 32 32 33 33 33 33 33 33 33 33 33 33 32 32 33 34 34 34
29 28 27 28 27 27 27 27 28 28 29 28 29 29 30 30 32 32 31 32 32 33 33 33 33 33 34 34 34 33 32 32 32 33 34 33 33 33 32 32 32 33 34
31 30 29 29 29 28 28 28 29 29 29 29 30 29 30 30 31 31 32 32 32 33 33 34 34 34 34 35 33 32 32 32 32 33 34 34 34 34 33 33 33 33 33
31 30 30 30 30 29 29 29 30 30 30 30 30 30 30 31 31 32 32 32 33 33 34 35 35 35 35 35 33 33 33 33 33 33 34 34 34 35 35 35 35 35 34
30 30 30 30 29 29 28 28 29 29 30 30 30 31 31 32 32 33 33 33 33 34 34 35 36 36 36 35 34 34 34 34 34 34 34 34 35 35 35 35 35 36 36
Wind_Direction
245 243 242 249 251 248 249 241 244 248 246 246 242 243 245 250 255 259 262 267 269 272 271 277 279 269 268 273 274 272 273 272 273 279 278 279 281 286 288 284 277 271 270
246 250 247 246 249 250 255 251 246 249 250 247 246 248 248 252 255 261 263 264 268 272 274 278 277 271 268 271 277 277 276 278 278 280 281 282 283 285 286 283 278 277 274
261 267 264 256 260 262 263 258 255 255 256 253 253 255 257 259 259 262 265 263 271 279 282 282 278 275 275 278 281 286 288 284 284 286 285 283 281 282 285 278 274 274 273
277 278 278 276 274 268 266 265 264 259 263 260 261 261 258 259 262 262 265 267 272 279 282 282 276 272 275 279 283 286 287 289 287 289 291 290 286 285 284 277 275 273 272
278 279 278 276 274 272 265 265 268 269 265 263 265 265 260 261 262 262 267 269 272 278 279 279 274 271 272 278 281 284 286 288 287 288 290 289 286 284 284 280 280 279 276
279 280 284 286 280 278 272 269 269 267 270 270 266 263 261 261 259 262 265 269 270 274 277 276 276 276 274 277 281 282 283 286 286 285 288 289 284 281 283 283 285 284 283
290 286 281 280 283 279 278 276 275 272 270 271 271 269 268 266 264 258 259 266 270 274 278 277 276 275 274 279 281 281 282 282 282 281 282 283 286 285 282 282 285 284 284
290 289 282 277 278 276 276 279 282 279 271 269 270 272 272 269 267 265 265 266 268 270 275 278 278 275 275 277 278 278 280 278 278 278 279 281 283 283 282 281 282 282 281
300 288 282 277 276 275 276 279 281 282 279 274 272 272 275 271 268 271 273 271 271 270 272 275 278 278 276 277 279 279 279 277 278 278 280 281 281 283 282 283 284 283 282
308 301 291 279 278 277 275 276 278 278 281 281 277 277 279 275 273 270 269 272 273 274 275 277 279 279 277 278 280 279 278 277 276 275 278 279 280 280 280 280 282 283 282
309 307 297 287 281 278 276 274 276 279 279 279 278 280 286 282 279 273 270 272 275 276 277 280 282 281 280 280 279 279 278 275 273 273 275 277 278 279 278 278 280 282 282
308 306 300 292 287 285 282 276 277 276 276 277 280 280 283 285 283 278 277 274 275 278 280 282 281 280 281 280 281 281 279 276 273 273 274 276 277 277 276 276 276 278 280
305 306 300 296 290 290 291 285 282 280 279 280 281 281 283 283 284 280 281 280 278 278 280 281 282 282 282 279 279 280 279 277 274 274 274 275 276 276 277 275 275 276 278
304 301 297 295 291 289 290 286 282 282 282 282 283 284 283 284 286 285 282 280 279 278 280 280 280 280 281 280 279 278 278 277 275 275 275 276 276 276 277 275 274 274 276
302 300 296 292 290 288 286 285 283 283 282 282 283 284 283 284 286 286 286 284 282 282 282 281 279 278 278 279 279 279 280 277 276 275 274 274 274 274 276 276 274 273 274
301 299 296 291 289 287 286 284 282 282 281 281 281 282 282 283 284 285 286 284 284 283 283 282 280 279 279 279 278 279 279 279 278 276 275 273 273 273 274 276 275 274 273
298 296 294 292 290 287 285 284 283 282 282 280 279 280 281 283 283 284 286 286 285 284 282 282 282 281 281 281 280 280 279 279 280 278 275 274 275 274 275 276 275 275 274
295 294 293 290 288 287 285 282 282 284 283 282 280 280 281 283 284 284 285 285 284 284 283 282 282 282 282 281 281 281 279 279 279 279 278 277 276 275 275 274 275 275 274
293 291 290 288 286 285 284 282 282 283 282 282 282 282 282 282 285 285 285 284 284 284 284 284 283 282 282 281 281 280 279 278 276 276 277 277 276 276 275 274 274 275 275
291 289 289 290 288 285 284 284 283 282 282 282 282 282 282 283 284 284 284 285 285 284 283 283 283 282 281 280 281 281 279 279 278 277 276 277 277 276 276 274 274 275 276
291 291 289 289 288 286 285 283 281 281 281 282 282 282 283 283 283 283 283 284 284 284 284 283 283 282 281 281 281 281 280 280 279 278 276 276 276 276 275 274 274 274 275
289 289 289 288 287 287 286 282 280 279 279 281 282 284 285 286 285 284 284 284 284 283 283 283 282 281 281 281 280 280 279 279 279 278 278 277 277 277 276 274 274 272 273
286 284 284 286 286 286 285 283 281 280 280 281 283 284 287 289 287 285 284 283 283 283 283 284 282 281 282 280 280 279 278 279 279 278 277 277 277 277 276 276 275 274 273
285 284 284 284 284 283 283 283 283 282 283 283 282 285 288 290 288 287 285 284 283 282 282 282 282 282 281 280 279 278 278 278 279 279 278 277 277 276 275 274 274 275 275
285 284 282 282 283 283 283 283 282 282 283 284 285 287 289 290 289 288 286 284 283 283 282 282 281 281 280 278 277 277 277 278 279 279 277 277 277 276 275 274 273 273 274
287 286 285 284 284 284 285 285 285 285 284 284 286 287 288 289 289 288 286 284 283 283 283 283 282 281 279 278 277 277 277 278 279 278 277 277 277 277 276 275 274 273 273
Height
5902 5902 5902 5902 5901 5901 5901 5900 5900 5900 5901 5901 5901 5902 5903 5903 5903 5903 5903 5904 5904 5903 5903 5903 5903 5902 5902 5901 5901 5901 5900 5900 5900 5899 5899 5899 5898 5898 5897 5896 5896 5895 5895
5901 5901 5900 5900 5900 5899 5899 5899 5899 5899 5899 5900 5900 5900 5901 5901 5902 5902 5902 5902 5902 5902 5902 5902 5901 5901 5900 5900 5899 5899 5899 5898 5898 5898 5897 5897 5897 5896 5896 5895 5894 5894 5894
5899 5899 5899 5899 5899 5899 5899 5898 5898 5898 5898 5898 5898 5898 5899 5899 5900 5900 5900 5900 5900 5900 5900 5900 5899 5899 5899 5898 5898 5897 5897 5897 5896 5896 5896 5895 5895 5895 5894 5893 5893 5893 5892
5898 5898 5898 5898 5897 5897 5897 5897 5896 5896 5896 5896 5896 5896 5897 5897 5897 5898 5898 5898 5898 5898 5898 5898 5897 5897 5897 5896 5896 5896 5895 5895 5895 5894 5894 5893 5893 5892 5892 5891 5891 5890 5890
5897 5897 5896 5896 5895 5895 5894 5895 5895 5894 5894 5894 5894 5894 5894 5895 5895 5895 5896 5896 5896 5896 5896 5895 5895 5895 5895 5894 5894 5894 5893 5893 5892 5892 5892 5891 5891 5890 5890 5889 5888 5888 5887
5896 5895 5895 5894 5893 5893 5893 5893 5893 5892 5892 5892 5891 5891 5891 5892 5892 5893 5893 5893 5893 5893 5893 5893 5893 5892 5891 5891 5891 5891 5891 5890 5890 5889 5889 5888 5888 5887 5887 5886 5886 5885 5885
5894 5893 5893 5892 5891 5891 5891 5891 5891 5890 5890 5890 5889 5889 5889 5889 5889 5890 5890 5891 5890 5890 5890 5890 5890 5889 5888 5889 5888 5888 5888 5887 5887 5886 5886 5885 5885 5884 5884 5884 5883 5882 5882
5892 5891 5890 5890 5890 5889 5889 5889 5889 5888 5887 5887 5888 5887 5887 5887 5887 5887 5887 5887 5887 5887 5887 5886 5886 5885 5885 5885 5885 5885 5884 5884 5884 5883 5883 5882 5882 5881 5880 5880 5880 5879 5878
5890 5889 5888 5888 5887 5887 5887 5887 5887 5887 5886 5886 5886 5886 5885 5885 5884 5884 5883 5883 5883 5883 5883 5883 5882 5881 5881 5881 5881 5881 5880 5880 5880 5879 5879 5878 5878 5877 5877 5876 5876 5875 5875
5888 5887 5886 5885 5885 5885 5885 5885 5884 5884 5884 5884 5883 5883 5883 5882 5882 5882 5881 5880 5880 5879 5879 5879 5878 5878 5877 5877 5876 5876 5876 5876 5875 5875 5875 5874 5874 5873 5873 5873 5872 5871 5871
5887 5885 5884 5883 5883 5882 5882 5882 5882 5882 5881 5881 5881 5880 5880 5879 5878 5878 5878 5877 5876 5876 5875 5874 5874 5873 5873 5872 5872 5871 5871 5871 5871 5870 5870 5870 5869 5869 5869 5868 5868 5867 5866
5885 5883 5882 5881 5880 5880 5879 5879 5879 5878 5878 5878 5878 5877 5877 5876 5875 5874 5874 5873 5873 5872 5871 5870 5869 5869 5868 5867 5867 5866 5866 5865 5865 5865 5865 5865 5865 5864 5864 5863 5863 5863 5862
5883 5881 5880 5879 5878 5877 5877 5876 5875 5875 5875 5874 5874 5873 5873 5872 5871 5870 5870 5869 5869 5868 5867 5866 5865 5864 5863 5862 5862 5861 5860 5860 5860 5860 5860 5860 5859 5859 5858 5858 5858 5857 5857
5880 5879 5877 5876 5875 5875 5874 5873 5872 5871 5871 5870 5870 5869 5868 5867 5867 5866 5865 5864 5864 5863 5862 5861 5860 5858 5858 5857 5856 5856 5855 5854 5854 5854 5854 5854 5853 5853 5852 5852 5852 5851 5851
5878 5876 5874 5873 5872 5871 5870 5869 5868 5867 5866 5865 5865 5864 5863 5863 5862 5861 5860 5859 5859 5858 5857 5856 5854 5853 5852 5851 5851 5850 5850 5849 5848 5848 5848 5847 5847 5846 5846 5845 5845 5845 5844
5874 5873 5871 5870 5868 5867 5865 5864 5863 5862 5861 5861 5860 5859 5858 5857 5856 5855 5854 5853 5852 5851 5850 5849 5848 5847 5846 5845 5844 5843 5843 5842 5842 5841 5841 5841 5840 5840 5839 5838 5838 5838 5837
5870 5868 5867 5865 5864 5862 5861 5859 5858 5857 5856 5855 5854 5853 5853 5852 5850 5849 5848 5846 5845 5844 5843 5842 5841 5840 5839 5838 5837 5836 5835 5835 5835 5834 5834 5833 5833 5832 5832 5831 5831 5831 5830
5865 5863 5861 5860 5858 5857 5856 5854 5853 5851 5850 5850 5849 5847 5846 5845 5844 5842 5841 5839 5838 5837 5836 5835 5834 5833 5831 5830 5829 5828 5827 5827 5827 5826 5826 5825 5825 5824 5824 5823 5823 5823 5822
5859 5858 5856 5854 5852 5851 5849 5848 5847 5845 5844 5843 5842 5841 5839 5838 5836 5835 5833 5832 5831 5829 5828 5827 5826 5825 5823 5822 5821 5820 5819 5819 5818 5818 5817 5817 5816 5816 5816 5815 5815 5814 5814
5854 5852 5850 5848 5846 5844 5843 5842 5840 5839 5838 5836 5835 5833 5832 5830 5829 5827 5826 5824 5823 5821 5820 5819 5818 5816 5815 5814 5813 5812 5811 5810 5809 5809 5808 5808 5807 5807 5807 5806 5806 5806 5805
5847 5845 5843 5841 5839 5838 5836 5834 5833 5832 5830 5829 5827 5826 5824 5822 5820 5819 5817 5816 5814 5813 5811 5810 5809 5808 5806 5805 5804 5802 5801 5801 5800 5799 5799 5798 5798 5798 5797 5797 5797 5797 5796
5840 5838 5836 5834 5832 5830 5828 5827 5825 5824 5822 5821 5819 5818 5816 5814 5811 5810 5808 5807 5805 5804 5802 5801 5800 5799 5797 5796 5794 5793 5792 5792 5791 5791 5789 5789 5788 5788 5787 5787 5787 5787 5787
5832 5830 5828 5826 5824 5822 5820 5819 5817 5815 5814 5813 5811 5809 5808 5805 5803 5801 5799 5798 5796 5794 5793 5792 5790 5789 5788 5786 5785 5784 5783 5782 5781 5780 5779 5779 5778 5778 5778 5777 5777 5777 5777
5824 5821 5820 5818 5816 5814 5812 5810 5809 5807 5805 5804 5803 5801 5799 5796 5794 5792 5791 5789 5787 5785 5784 5782 5781 5779 5778 5776 5775 5774 5773 5772 5772 5770 5769 5769 5768 5768 5767 5767 5767 5767 5766
5815 5813 5811 5810 5808 5806 5804 5802 5800 5799 5797 5796 5794 5792 5790 5788 5786 5784 5782 5780 5778 5776 5774 5772 5770 5769 5768 5766 5765 5764 5764 5763 5762 5761 5760 5759 5758 5757 5757 5757 5757 5757 5756
5807 5805 5803 5801 5799 5797 5795 5794 5792 5790 5788 5787 5785 5783 5781 5779 5777 5774 5772 5770 5768 5766 5764 5762 5760 5758 5757 5756 5755 5754 5754 5753 5752 5752 5750 5749 5748 5747 5747 5747 5746 5746 5746